Wind_Speed
65 63 62 62 62 62 61 60 58 56 55 54 54 55 56 55 53 50 46 42 39 36 32 31 29 28 26 24 24 23 21 19 17 15 13 12 9 8 7 6 9 12 13 12 12 13 13 14 15 16 17 19 19 20 21 22 24 25 27 28 29 30 30 30 29 27 27 27 28 30 31 31 32 33 33 32 31 29 27 26 26 26 26 26 27 27
66 65 65 64 63 62 61 59 58 57 57 57 57 56 57 57 56 53 48 45 43 38 34 34 31 28 27 26 25 24 22 21 19 18 15 14 11 9 9 7 8 10 11 11 10 11 12 13 14 15 16 18 19 20 20 21 23 24 25 26 28 29 29 30 29 28 27 27 27 29 30 30 31 32 33 33 32 31 30 28 27 26 25 25 25 25
68 67 67 65 63 62 62 61 61 60 59 59 59 57 57 58 57 55 50 46 44 39 36 35 32 30 29 28 26 24 23 23 22 20 17 16 15 12 11 9 8 9 10 10 9 9 10 11 12 14 15 17 18 20 20 21 22 23 24 24 26 27 28 29 29 29 28 27 26 27 29 29 30 31 32 32 32 32 31 30 29 27 26 25 24 23
70 70 68 66 64 63 63 64 63 62 62 61 60 59 58 59 58 55 52 48 44 41 39 38 35 32 31 28 25 24 25 25 24 22 20 18 18 15 13 11 10 9 9 10 9 8 8 10 11 12 14 15 17 19 19 20 21 22 23 23 24 25 26 28 29 29 28 27 26 27 27 28 29 30 31 31 32 32 31 31 30 29 28 26 25 23
72 72 70 68 66 65 65 65 65 64 63 62 62 60 59 59 59 56 53 50 47 44 40 39 37 34 32 29 26 25 27 26 25 23 22 21 20 18 15 12 11 10 9 9 8 7 7 8 9 10 12 14 15 17 18 19 20 22 22 23 23 24 25 26 27 28 28 27 27 26 26 27 27 28 29 30 31 31 31 31 31 30 29 28 27 26
72 72 71 70 68 67 67 67 67 65 65 64 63 62 60 59 59 58 55 52 50 48 42 38 36 35 34 32 30 30 29 27 25 24 23 22 22 20 17 15 13 12 10 9 7 5 5 6 8 9 10 12 13 15 16 18 19 20 22 22 22 23 24 24 25 26 27 27 27 26 26 26 26 27 28 29 29 30 31 31 31 31 30 30 29 28
72 73 72 71 70 69 69 69 68 66 66 65 64 63 62 60 59 58 56 55 54 51 46 40 38 37 36 35 35 34 31 29 26 26 25 24 24 23 21 18 16 14 13 11 9 7 5 4 6 7 8 10 12 13 14 15 17 19 20 21 21 21 22 23 24 25 25 26 26 26 25 25 25 25 26 27 28 29 30 30 31 31 31 31 30 30
72 74 73 73 72 71 71 71 70 68 67 67 66 65 63 61 60 60 59 58 57 54 51 47 41 39 36 36 37 36 33 30 28 28 27 26 26 25 22 20 18 16 15 14 12 10 8 5 4 5 6 8 10 11 12 13 15 17 18 19 20 20 21 22 22 23 24 24 25 25 25 25 25 25 25 25 26 27 28 29 30 30 31 31 31 30
74 75 75 76 75 73 72 72 71 70 68 68 67 66 64 63 62 62 61 61 60 57 54 50 44 39 35 36 39 37 34 31 30 31 29 28 28 26 23 22 20 18 17 16 14 12 10 8 5 4 4 6 8 10 10 11 12 15 16 18 18 19 20 21 21 22 22 23 23 24 24 24 24 24 24 24 25 26 27 28 28 29 29 30 31 31
74 75 76 76 76 75 74 72 71 70 69 69 69 67 64 63 63 63 62 62 62 61 56 51 46 39 33 36 40 38 37 34 33 34 31 29 30 28 25 24 22 21 19 18 17 14 12 11 8 5 3 3 5 7 9 9 10 12 14 15 17 17 19 19 20 20 21 21 21 22 23 23 23 23 23 23 24 24 25 26 27 27 28 29 30 31
73 74 76 77 77 76 74 72 71 70 70 70 69 67 65 64 64 64 64 64 64 63 58 52 48 41 33 36 42 41 40 38 35 34 32 30 31 30 29 27 25 23 21 20 19 16 14 13 11 8 5 3 2 4 6 7 8 10 12 13 14 15 17 18 18 19 20 20 20 20 21 21 22 22 22 22 23 23 24 24 25 26 27 28 29 30
73 73 75 77 78 77 75 73 72 70 71 72 70 68 67 66 66 66 65 66 66 65 61 55 51 46 39 38 45 45 42 40 37 35 34 33 32 32 31 29 26 25 24 22 20 19 16 14 13 10 7 5 3 1 3 5 6 8 10 12 12 13 14 16 17 17 18 18 19 19 19 19 20 21 21 21 22 22 23 23 24 25 26 27 27 29
74 73 75 77 79 79 77 74 73 72 72 72 71 70 69 68 67 68 68 68 69 66 62 59 54 51 47 42 45 48 45 42 40 36 36 36 34 32 31 30 28 27 26 23 21 21 19 17 15 13 11 9 6 4 2 2 4 5 8 10 11 11 12 13 14 16 17 17 17 18 17 17 18 18 20 21 21 21 22 22 23 23 24 25 26 27
75 73 74 77 79 79 78 75 74 73 73 72 72 72 70 69 67 68 69 70 72 68 63 63 59 54 54 49 46 49 48 44 40 36 37 38 36 34 32 30 30 29 28 25 22 21 21 20 17 15 14 12 10 7 5 3 1 2 4 6 8 10 11 11 12 13 14 16 16 16 16 16 16 17 17 19 19 20 21 21 22 22 23 24 24 25
76 75 75 76 78 80 79 77 75 74 74 74 74 73 72 72 70 70 72 72 74 71 65 64 63 58 56 53 50 52 50 46 41 37 36 39 39 37 33 32 31 30 28 25 23 22 23 22 20 17 16 15 12 10 8 6 3 1 1 3 4 7 9 10 9 10 12 13 14 15 15 15 15 15 16 16 17 18 19 20 20 21 21 22 23 24
77 76 76 77 79 81 81 79 77 76 76 77 77 76 75 75 73 72 74 74 74 74 69 65 65 63 59 54 52 52 51 48 44 40 38 39 40 40 36 34 33 31 28 25 24 24 24 24 22 20 18 17 15 13 11 9 7 5 3 1 2 4 6 8 8 8 9 11 12 13 13 14 13 14 14 15 15 16 17 18 19 20 20 21 22 23
78 77 77 78 80 82 83 82 80 80 80 79 78 77 76 76 75 73 74 74 74 74 72 68 67 66 62 56 52 53 52 50 47 43 42 41 41 41 40 37 35 33 30 26 24 24 25 25 25 23 21 19 17 17 15 13 11 8 6 4 3 3 3 5 7 7 7 8 10 11 11 12 12 12 12 13 14 15 15 16 17 18 19 19 20 21
79 78 78 80 81 83 84 83 83 82 81 79 78 78 77 77 77 75 73 73 74 74 72 71 69 67 63 58 55 55 53 52 51 47 44 43 42 43 42 40 38 34 32 29 25 24 26 26 26 27 25 21 20 20 18 16 14 12 9 7 6 5 3 2 4 4 5 6 7 8 9 10 11 11 11 11 12 14 15 15 15 16 17 18 19 19
79 78 80 81 82 84 84 84 84 82 80 80 80 79 79 79 77 75 74 73 75 76 74 72 71 69 66 61 57 57 56 55 54 51 48 47 45 44 43 42 40 37 34 32 29 27 27 27 27 27 26 24 23 22 21 19 17 15 12 10 9 7 5 3 3 2 3 4 4 6 8 8 9 10 10 10 11 12 13 14 14 14 15 16 17 17
80 80 82 83 84 85 85 84 83 82 81 80 80 79 79 80 78 76 76 75 76 77 77 75 73 71 70 66 60 58 57 56 57 56 53 51 48 46 45 43 42 38 34 33 33 31 29 28 28 28 27 27 26 25 24 21 19 18 16 14 12 10 8 7 6 4 2 2 2 3 6 7 7 8 9 9 9 9 10 11 13 13 13 14 14 15
83 82 83 84 84 84 83 82 83 83 83 82 81 81 80 80 79 77 77 77 77 77 77 77 75 73 72 71 67 63 60 58 58 59 58 55 51 49 46 44 44 41 36 34 36 35 32 31 31 29 29 29 29 29 26 23 22 20 19 17 15 13 11 10 9 7 5 3 2 0 3 5 6 6 7 7 8 8 8 8 10 11 12 12 12 12
84 83 83 84 84 84 83 84 85 85 85 84 83 83 82 80 79 78 77 77 77 77 77 77 77 76 74 74 73 70 66 63 61 60 61 59 55 52 48 46 45 44 40 38 37 37 36 34 33 32 31 31 31 30 28 25 24 22 21 20 18 16 14 13 12 10 9 6 5 3 1 2 4 5 5 5 6 6 6 7 7 8 10 10 10 10
85 84 83 84 85 85 84 84 84 85 86 86 86 85 83 81 80 80 78 78 78 77 77 77 78 78 77 75 75 75 73 70 67 64 62 61 59 55 51 48 48 45 43 42 40 40 39 38 37 35 34 33 32 31 30 28 26 25 24 23 21 19 18 16 14 13 12 10 8 6 4 3 2 3 5 5 5 5 5 6 7 7 7 8 9 8
86 84 84 85 86 84 82 83 84 86 87 88 86 85 84 83 82 82 80 79 79 79 77 77 77 79 80 78 76 77 76 74 72 69 66 63 62 58 53 50 51 48 45 44 43 41 40 39 39 39 37 36 34 33 32 31 29 28 27 26 24 22 21 19 18 16 15 14 12 9 7 6 5 5 5 4 4 5 5 5 7 8 7 7 8 8
87 86 85 86 86 84 84 85 85 85 86 87 86 85 84 83 83 82 82 82 81 80 78 77 77 78 81 80 77 77 77 76 74 72 69 67 64 63 58 53 53 52 48 47 45 43 43 42 41 42 40 38 36 34 34 33 31 30 29 28 27 25 24 22 21 20 19 17 16 13 11 10 9 8 8 6 5 5 5 4 5 6 6 6 7 7
87 88 87 86 86 86 86 86 84 83 85 87 86 85 85 84 83 83 84 84 82 81 79 78 78 79 80 81 80 78 78 78 76 73 72 70 67 66 64 58 56 54 50 49 47 45 46 46 44 43 42 40 38 36 35 34 33 32 31 31 30 28 27 26 24 23 22 21 20 18 16 15 13 12 11 10 8 8 7 7 7 6 5 5 5 5
87 88 87 86 87 88 88 86 85 84 85 86 86 87 87 85 85 85 85 83 82 82 81 80 81 81 81 81 81 81 79 79 78 75 73 73 70 68 66 62 59 55 50 48 48 47 48 49 46 44 43 42 40 38 36 35 34 34 33 33 32 32 31 29 27 26 25 24 24 22 21 19 18 16 15 14 12 11 10 8 7 8 8 6 5 5
87 87 86 86 87 88 87 85 85 85 85 87 88 89 89 86 85 86 86 85 85 84 83 83 84 83 83 82 82 82 81 80 79 77 76 75 73 71 68 65 63 58 52 49 50 49 50 49 47 46 46 44 41 39 38 37 37 36 35 35 34 34 33 32 31 29 28 28 26 25 24 23 22 21 19 18 16 15 14 12 10 9 11 10 9 8
86 87 87 87 86 86 86 85 85 86 86 87 89 90 89 88 87 87 87 88 87 87 86 86 86 85 83 82 82 82 82 81 80 79 79 78 76 74 72 70 69 66 59 54 51 49 50 50 47 47 47 46 43 42 41 40 40 39 38 38 37 36 36 35 34 33 31 31 30 28 27 26 25 24 24 23 21 19 18 16 15 13 12 12 13 12
85 86 87 86 85 85 85 85 86 86 86 87 89 90 90 89 88 88 89 89 89 88 88 87 87 86 84 83 82 82 81 81 81 80 81 80 79 78 76 73 73 73 68 61 54 47 46 49 50 48 48 48 47 45 45 43 41 41 40 39 39 39 39 38 37 36 35 34 33 31 29 28 28 27 27 26 26 24 22 21 19 18 18 16 16 16
84 86 85 85 84 84 85 85 86 86 87 88 89 90 90 90 89 89 90 90 89 87 85 86 86 86 85 84 83 82 82 80 80 81 81 82 82 81 79 77 76 76 74 69 62 53 45 45 50 52 51 50 49 47 48 45 42 41 41 41 42 43 43 42 41 39 38 37 36 34 32 31 31 31 30 30 29 28 27 25 22 21 21 21 19 19
83 84 84 83 84 85 85 85 86 87 89 89 89 89 90 91 91 91 91 91 90 87 86 87 88 87 87 86 84 83 83 82 80 80 81 82 83 82 81 80 79 78 78 75 71 65 55 47 49 52 51 49 47 47 49 48 44 43 43 43 46 47 46 45 43 42 41 39 38 38 37 35 35 35 35 33 32 32 31 29 27 25 23 22 21 21
81 83 83 83 84 86 86 86 87 88 89 89 89 90 90 91 91 92 92 92 92 90 89 90 89 87 87 87 86 85 84 84 82 80 80 81 83 84 83 82 81 80 80 78 75 73 67 57 51 53 51 46 43 43 47 49 48 46 46 47 49 50 48 45 43 43 43 41 41 41 40 39 38 38 38 37 35 35 35 34 32 29 27 25 23 22
79 81 83 85 86 88 87 86 87 88 89 90 90 90 91 91 91 92 92 93 93 93 93 92 90 88 88 88 88 88 86 86 84 81 80 81 82 84 84 84 83 82 81 81 78 76 73 65 58 56 57 51 43 40 44 49 49 47 47 48 50 50 49 47 46 47 46 44 43 42 41 41 41 41 42 41 39 39 38 38 36 33 31 29 28 26
78 80 84 85 86 88 88 87 88 89 89 91 91 91 91 92 92 92 92 93 94 94 94 94 93 91 89 89 90 90 88 87 85 84 83 82 82 82 84 85 85 84 83 82 80 77 75 71 65 62 63 62 54 46 45 49 51 49 48 49 48 46 48 49 49 50 49 47 45 44 42 41 42 44 45 44 43 42 41 40 40 38 36 34 33 31
77 79 83 84 85 87 88 87 88 88 88 90 92 92 92 93 93 93 93 93 94 94 95 94 94 93 92 92 91 91 89 88 87 86 86 85 83 82 83 84 86 86 85 84 83 80 78 75 71 69 70 71 66 58 51 50 52 52 51 51 50 48 48 48 49 50 50 48 45 43 42 41 42 45 46 46 46 44 43 44 44 42 40 38 37 36
76 78 82 83 84 85 87 87 87 88 89 91 92 92 92 92 93 93 93 94 94 95 95 95 94 94 94 94 93 92 91 90 89 89 88 87 85 84 83 83 84 86 86 86 85 83 80 77 75 74 75 76 75 72 66 59 56 55 53 53 54 55 53 52 51 51 50 48 45 43 42 43 46 48 48 48 48 46 45 48 48 45 41 40 39 39
75 77 80 82 82 83 85 86 87 88 90 90 91 92 92 92 93 93 94 95 95 95 95 95 95 95 95 95 94 93 93 92 91 90 89 88 87 85 84 83 83 84 85 86 86 85 83 81 79 78 79 79 78 78 76 70 64 60 58 57 57 57 57 57 55 53 51 50 49 48 47 47 49 50 49 49 49 48 48 50 50 46 44 43 42 42
72 76 79 81 81 82 84 86 87 88 89 89 90 92 93 93 94 95 94 94 93 94 95 96 96 96 96 95 96 96 95 94 93 92 90 88 87 86 85 85 85 85 85 85 86 86 86 84 82 80 80 80 80 79 78 74 69 64 62 62 61 59 59 59 57 55 52 52 52 53 54 55 53 52 52 52 51 51 51 51 50 49 48 47 46 45
69 73 75 78 80 82 84 86 87 88 89 89 89 91 92 93 94 94 94 93 94 94 96 96 97 97 97 96 97 97 96 95 93 92 91 90 89 89 88 88 88 87 87 87 86 86 87 86 85 83 81 80 81 80 79 77 74 70 66 64 64 63 62 61 59 57 56 56 57 58 61 63 61 57 55 55 55 54 53 52 52 51 51 50 48 47
65 69 72 75 79 81 83 85 86 87 88 90 90 90 91 92 93 93 94 96 97 97 97 97 97 97 97 97 97 96 95 94 93 93 93 93 92 92 92 92 91 90 89 89 88 87 86 86 86 85 84 83 82 81 80 79 79 76 71 67 66 66 65 63 63 62 61 61 61 62 65 67 66 62 59 58 58 58 58 57 56 55 54 52 51 50
62 65 69 73 77 79 81 82 84 87 88 89 89 89 89 91 91 93 95 98 99 98 97 97 97 97 96 96 96 95 95 95 95 95 96 96 96 96 96 95 94 93 92 91 90 90 88 87 87 86 86 86 85 84 83 83 81 79 75 70 68 69 69 67 65 66 66 66 67 67 68 70 70 67 64 63 63 63 63 63 61 60 57 55 55 54
61 62 65 70 73 76 78 81 83 86 87 88 88 88 89 89 90 91 95 97 98 98 97 97 98 97 95 94 94 94 94 95 95 96 97 97 97 98 98 97 96 95 94 93 92 91 90 89 88 87 87 87 87 87 86 86 85 82 78 73 69 70 73 71 68 69 69 70 71 72 73 74 74 72 69 68 69 69 69 67 66 64 62 60 59 58
63 62 64 67 70 72 76 79 81 84 86 87 87 88 89 90 90 91 93 95 96 97 97 98 98 97 95 94 92 92 93 94 95 96 97 98 98 98 99 99 98 97 96 94 93 92 92 91 90 90 88 88 88 89 89 89 89 88 85 79 72 71 74 75 74 72 72 73 73 74 75 76 76 75 72 72 73 73 73 72 70 69 68 66 64 62
65 64 64 65 67 69 73 77 80 83 85 86 86 87 88 89 90 91 91 93 95 96 96 97 97 97 95 94 93 93 92 93 95 97 97 98 99 100 100 100 99 99 98 97 96 95 94 93 92 92 91 90 90 90 91 92 93 92 91 88 82 76 75 77 79 77 76 75 76 76 76 76 77 76 76 75 76 76 75 74 74 74 74 72 70 67
67 66 65 65 66 68 71 74 77 80 82 83 83 85 86 87 89 90 90 91 93 94 95 96 96 95 93 92 93 95 93 91 93 97 98 98 99 100 102 102 101 101 100 99 99 98 97 97 95 94 94 94 93 92 92 93 95 96 95 94 92 87 82 80 82 83 81 78 78 78 79 79 78 78 78 78 78 78 78 77 76 75 75 75 74 72
67 68 68 67 67 68 69 71 74 76 79 80 81 83 84 85 87 88 90 91 92 93 94 95 96 96 94 93 93 95 94 92 94 96 98 99 99 99 101 103 104 104 103 102 102 101 101 100 99 99 98 97 97 96 95 95 96 97 98 98 98 96 92 88 86 87 87 85 83 81 82 83 84 83 82 81 81 82 82 82 82 81 79 78 78 77
62 67 70 70 69 68 69 70 72 74 76 78 79 81 83 84 85 87 89 90 91 92 94 95 96 96 96 95 93 92 93 96 98 98 99 100 101 100 100 102 103 104 105 105 104 103 103 102 102 102 102 101 100 100 99 98 98 98 100 101 101 102 101 99 94 91 90 90 89 87 85 85 87 88 88 87 86 85 85 86 86 87 87 86 84 83
53 60 66 70 71 70 70 70 71 71 73 75 77 79 81 83 84 86 88 90 91 92 93 95 96 96 95 94 92 92 94 98 100 100 100 101 102 102 103 103 104 104 105 105 105 105 105 104 104 104 104 104 104 103 103 102 101 101 101 102 103 104 105 106 105 102 98 95 93 92 90 88 87 88 89 91 91 90 89 88 87 88 89 90 89 88
44 50 58 65 68 70 71 72 71 71 71 72 74 76 78 81 83 85 87 89 90 92 93 95 97 97 95 93 92 92 95 98 101 102 102 103 104 104 104 105 105 105 105 106 106 105 105 105 106 106 106 106 106 106 106 105 105 104 104 103 104 105 106 108 109 110 109 106 102 99 96 94 91 88 87 89 92 94 93 92 90 89 89 90 91 91
36 41 47 53 57 62 69 72 73 73 73 73 73 75 77 79 81 83 85 87 88 91 93 94 96 97 96 95 94 94 95 98 101 103 105 107 108 108 107 107 107 107 107 106 106 106 106 106 107 107 108 108 108 108 108 108 108 108 107 107 106 106 107 108 110 111 112 113 112 109 106 103 99 96 92 89 90 92 94 96 96 94 93 91 91 92
Wind_Direction
210 210 210 209 209 208 208 206 204 202 202 202 202 200 196 194 196 194 191 189 188 188 191 197 202 206 209 208 206 204 200 199 203 207 199 187 187 198 194 156 129 115 104 96 88 85 83 82 81 80 77 75 73 70 69 68 64 61 58 56 56 54 53 53 54 57 59 60 62 63 62 61 60 60 60 60 61 62 63 65 66 68 69 71 73 74
209 209 210 209 208 207 207 206 204 203 203 203 203 201 197 195 196 195 190 186 185 186 189 194 201 206 209 208 207 207 204 202 205 209 204 194 192 202 207 187 150 130 117 107 95 86 84 83 82 81 78 76 74 72 70 69 68 64 61 58 57 56 55 54 54 56 58 60 62 64 65 64 63 62 62 62 62 62 63 64 65 66 67 69 71 73
208 209 210 209 208 207 206 205 204 203 203 204 203 202 199 197 197 196 193 189 185 186 187 190 199 206 209 210 210 210 207 204 205 207 206 201 197 200 208 204 177 151 134 122 110 95 88 86 84 81 78 76 74 73 70 70 70 68 65 61 59 57 56 55 54 55 57 60 62 64 66 66 66 65 64 64 64 63 64 65 65 66 67 68 69 71
207 208 208 208 207 206 206 205 204 203 204 204 204 202 200 198 198 197 195 191 186 189 189 188 196 204 208 210 210 213 211 207 206 207 207 205 203 201 205 210 200 173 154 141 128 111 99 94 90 83 79 75 72 72 70 69 71 71 68 65 62 59 58 56 55 54 56 59 61 64 66 66 67 68 67 66 66 66 66 66 67 67 68 69 70 71
207 208 207 207 207 206 206 205 204 204 204 204 203 202 201 200 199 196 195 191 188 191 190 188 192 199 205 205 204 210 211 208 207 206 206 207 206 205 204 208 211 196 174 162 151 133 115 106 98 88 80 74 71 69 69 69 69 71 70 68 65 62 60 58 56 54 54 57 60 63 65 67 67 68 69 68 68 68 68 68 68 69 69 70 70 71
207 208 208 207 206 205 206 206 204 204 204 205 204 203 202 201 199 196 194 191 190 192 191 189 190 196 203 203 202 208 210 207 207 207 208 207 207 208 206 205 209 206 194 182 173 160 135 117 108 98 85 77 72 68 67 68 68 69 70 70 68 65 63 61 59 56 54 55 58 61 65 67 67 68 69 70 70 69 69 70 70 71 71 71 71 71
207 207 208 208 206 204 205 205 204 204 204 205 204 203 202 201 199 197 194 191 192 194 195 193 190 194 201 204 205 208 208 206 207 210 212 209 207 209 209 208 207 207 204 195 185 183 176 142 119 109 97 85 76 71 68 68 68 68 69 69 69 68 66 64 62 60 56 54 55 59 63 66 68 68 69 70 70 71 71 71 71 72 73 73 73 73
208 207 206 207 207 205 205 205 204 204 204 205 205 204 203 200 199 198 195 192 193 196 199 197 191 190 196 203 207 207 206 209 210 211 213 211 208 209 210 211 210 207 206 203 195 192 194 182 150 126 112 98 85 77 71 68 69 69 69 70 69 68 68 67 65 64 61 57 55 56 60 64 67 69 69 70 71 71 71 72 72 73 73 74 75 75
207 206 205 207 207 206 205 205 204 203 203 204 205 204 203 201 199 198 196 194 194 198 200 197 190 186 191 203 208 204 204 210 212 210 212 211 209 210 211 213 213 211 209 207 204 200 200 198 189 174 136 114 99 87 76 69 68 68 69 70 70 69 68 67 67 66 66 62 58 56 57 61 65 67 69 70 71 72 72 72 73 73 74 74 75 76
207 206 206 207 207 207 206 205 205 203 203 204 205 204 204 202 200 199 198 195 196 201 200 195 188 182 189 205 209 205 204 208 212 210 208 210 211 211 214 216 215 214 211 210 209 206 204 206 208 209 194 145 115 100 87 72 66 67 67 68 71 72 71 69 67 67 68 66 63 59 57 58 61 65 68 70 71 72 72 73 73 74 74 74 75 75
208 207 206 207 208 207 206 205 205 204 203 204 204 204 204 203 201 200 199 196 198 202 201 196 190 182 188 205 210 207 205 206 211 212 208 208 212 213 215 217 215 215 214 212 212 210 209 211 216 220 225 219 149 111 99 82 66 63 63 64 68 73 74 72 69 67 68 68 68 65 61 59 60 62 65 68 70 71 72 73 73 74 74 74 75 75
207 207 207 207 208 208 206 205 205 205 205 204 203 204 205 204 202 201 200 198 199 203 202 198 193 186 186 202 211 208 204 204 208 213 212 209 211 214 216 217 216 217 217 214 212 213 214 213 217 222 227 237 239 174 115 94 75 65 61 59 62 68 74 76 74 71 69 69 69 68 66 64 61 60 62 65 68 70 71 72 73 73 73 73 74 74
206 206 207 207 208 208 206 205 205 205 205 204 203 204 205 205 203 202 201 199 199 203 205 201 196 190 187 197 210 208 203 202 205 211 215 213 214 216 217 218 217 217 219 217 213 214 217 216 218 220 222 229 238 240 215 120 87 71 62 58 57 59 66 74 78 77 74 71 70 70 69 68 66 63 61 61 64 67 70 71 72 72 73 73 73 73
205 205 207 208 208 208 207 205 205 206 205 204 204 205 206 206 205 204 203 201 200 203 207 204 200 196 192 195 205 206 203 203 202 206 213 215 215 217 219 219 218 216 218 218 215 214 218 219 218 219 222 229 235 238 242 234 151 78 64 56 51 52 56 65 75 79 79 77 74 72 71 70 69 68 66 63 61 63 67 69 71 72 73 74 74 74
205 204 206 208 208 209 207 205 205 206 205 205 205 205 205 207 205 204 205 203 201 204 207 205 202 200 197 197 201 202 203 204 201 201 210 215 215 216 219 219 217 217 217 218 217 217 219 221 221 221 224 230 237 238 242 245 242 241 62 51 36 38 49 54 63 75 80 81 79 77 74 72 71 71 70 69 65 63 63 65 68 70 72 74 75 76
204 204 205 207 208 209 208 206 205 205 206 206 206 204 205 207 206 205 206 204 202 205 208 206 204 203 202 201 201 200 201 202 200 197 204 212 215 215 217 217 215 215 215 215 219 221 221 222 222 223 226 230 236 239 241 244 245 246 244 239 346 360 32 45 51 63 74 80 81 80 79 76 73 74 73 73 72 69 64 63 65 67 69 72 74 76
204 204 205 206 208 208 208 206 205 205 206 206 206 205 205 207 207 206 207 205 203 207 209 208 207 205 204 204 204 202 200 201 199 196 198 207 215 216 215 215 214 212 211 212 219 227 228 225 223 224 227 231 236 239 240 243 244 242 242 240 260 299 348 30 37 47 64 75 78 79 80 80 77 76 77 78 79 78 73 68 65 65 67 68 71 74
203 203 205 206 208 208 208 206 205 205 205 206 206 206 206 208 208 207 207 206 205 207 210 211 210 207 205 205 207 205 201 199 199 196 195 200 210 216 216 215 214 211 209 208 214 227 232 229 226 224 225 230 236 238 238 241 245 242 241 243 248 260 282 353 11 24 47 63 75 78 79 80 79 77 78 82 84 85 83 78 72 69 68 67 68 71
203 203 205 207 208 209 208 207 206 205 204 206 207 206 206 208 209 208 207 207 207 208 209 212 212 209 206 205 208 206 201 199 198 196 195 197 203 213 217 217 216 214 210 208 210 220 228 231 230 227 226 230 237 240 239 241 246 247 244 243 246 251 254 259 282 322 15 40 67 86 84 80 79 77 76 78 83 88 89 88 84 77 73 72 71 70
203 203 205 207 208 209 208 207 206 205 205 207 207 207 208 209 209 209 208 208 208 208 209 211 213 211 208 206 207 206 202 199 197 195 195 198 201 208 215 218 218 215 211 211 213 214 218 225 230 231 228 229 235 239 240 240 244 248 246 244 245 247 248 247 249 260 294 348 25 81 94 90 84 80 77 75 76 81 86 90 92 88 82 78 76 74
204 203 205 207 208 209 209 207 206 205 205 206 207 208 209 209 210 210 210 209 209 209 210 211 212 213 211 208 207 209 205 200 198 195 195 198 200 204 211 217 219 216 209 211 217 218 217 220 225 229 230 230 232 235 238 241 245 247 247 246 245 246 248 250 251 252 252 260 288 344 105 108 106 100 94 88 84 82 81 86 93 96 93 87 81 79
204 203 205 207 208 209 208 208 207 206 206 206 207 208 208 209 210 211 211 211 210 211 211 211 212 213 214 211 209 211 211 206 201 198 197 199 200 202 207 212 215 213 209 210 217 221 222 223 223 225 228 230 231 232 235 240 245 247 247 245 245 246 248 251 253 252 251 247 246 245 211 141 140 138 131 119 109 103 100 99 101 103 104 100 92 84
204 204 205 207 208 208 208 208 207 206 206 207 207 207 207 208 209 211 212 212 212 212 212 212 213 214 215 214 211 212 213 211 207 203 200 200 200 201 205 211 212 209 208 211 214 218 222 225 226 226 227 229 230 230 232 236 241 243 244 243 242 243 247 249 250 250 251 250 246 241 236 226 206 182 171 158 146 137 131 129 128 125 122 119 113 103
205 204 205 207 208 208 208 209 208 207 207 207 207 207 207 208 209 210 211 212 212 213 213 213 214 214 215 216 215 213 214 214 212 209 205 202 201 200 203 212 215 208 206 209 212 215 217 220 226 226 225 227 229 229 231 234 237 239 240 240 240 241 244 246 249 249 249 250 249 248 244 240 240 232 214 197 182 174 161 148 145 143 141 140 138 133
206 205 205 207 208 207 208 209 209 208 208 208 208 208 208 209 210 211 211 212 213 213 213 214 214 215 216 217 217 215 215 215 214 212 209 205 202 201 203 210 213 208 205 209 211 213 213 214 220 224 225 225 227 229 231 232 235 236 237 238 238 240 242 244 247 248 248 250 249 249 249 245 244 240 238 235 225 219 214 195 174 159 152 154 154 150
206 206 206 207 207 207 208 209 209 208 209 209 209 209 209 209 210 212 212 213 213 213 214 215 215 216 217 217 218 217 216 216 215 214 212 207 203 203 204 208 209 205 205 209 212 214 215 214 216 221 224 225 224 227 229 231 235 237 237 237 237 239 241 242 245 246 248 250 251 251 251 249 247 243 242 243 238 240 245 236 218 203 186 179 177 171
208 207 207 207 208 208 208 208 208 208 209 209 209 209 210 210 210 212 213 213 214 214 214 216 216 216 216 217 218 219 218 217 217 216 214 210 206 204 204 206 205 202 202 207 212 214 216 218 218 218 222 225 225 226 228 230 234 236 238 239 239 241 243 244 246 247 247 248 250 251 252 252 252 248 245 245 245 250 263 264 243 224 217 214 213 207
208 208 208 208 209 209 209 209 208 209 209 209 210 210 210 209 210 212 213 213 214 215 215 217 217 217 216 216 217 219 219 218 217 217 216 213 211 208 206 205 205 203 201 203 209 214 216 218 218 219 221 224 225 227 229 230 232 235 237 240 241 243 244 245 246 247 248 248 249 250 251 252 253 253 251 249 249 252 262 273 268 244 227 223 231 238
209 209 208 209 210 210 210 209 209 210 209 209 210 210 210 210 210 211 213 213 214 214 215 217 218 217 216 217 217 219 219 219 218 218 217 215 214 213 210 207 207 208 206 203 205 213 217 218 217 218 221 223 224 226 229 230 231 233 236 238 241 243 244 244 245 246 247 248 248 249 251 252 253 255 255 254 253 252 255 262 266 262 250 235 232 240
209 209 209 209 210 211 210 210 210 211 211 211 211 211 211 211 211 211 213 214 214 215 216 218 220 219 217 217 218 219 220 220 220 219 218 217 217 217 215 212 211 213 213 208 203 207 216 220 221 220 222 224 225 226 228 230 232 234 236 238 240 241 242 243 243 244 245 246 247 248 250 252 253 254 255 256 255 253 252 254 257 260 266 264 248 238
209 210 209 209 211 211 211 211 211 212 212 212 212 212 212 212 211 212 213 214 215 215 216 218 220 220 219 218 219 220 220 220 221 220 219 219 218 219 219 217 216 217 218 215 209 205 209 218 223 224 226 228 228 229 231 230 232 236 238 240 242 242 241 241 241 242 243 243 244 246 248 250 251 252 253 254 255 254 252 252 253 255 263 275 273 254
210 210 209 210 211 212 212 211 212 212 213 213 213 213 213 213 212 213 214 214 215 216 217 218 219 220 220 219 219 220 220 220 221 221 220 220 220 220 220 220 219 219 221 221 217 211 208 212 219 223 227 231 232 232 233 231 230 234 238 240 241 241 240 240 241 242 242 242 243 245 247 248 249 249 250 250 252 254 253 253 254 254 254 263 274 269
209 210 209 210 212 212 212 212 212 213 214 214 214 214 214 214 214 214 214 215 215 216 218 219 219 220 220 220 220 220 221 221 221 221 221 221 221 221 221 221 221 221 221 223 223 219 215 212 215 220 224 229 232 232 232 231 230 231 234 236 238 239 240 240 242 243 242 243 244 245 247 248 247 246 247 248 251 253 254 254 253 254 252 251 255 263
209 210 210 210 212 212 211 212 212 213 214 214 214 215 215 215 215 215 215 216 216 217 218 219 220 220 220 220 221 221 221 221 221 221 221 222 222 222 222 222 222 222 222 223 224 224 221 215 213 217 222 224 226 228 230 228 226 226 230 234 237 240 241 241 243 244 243 243 243 244 246 247 246 245 243 245 248 250 252 253 253 253 254 251 247 249
208 210 211 211 213 213 212 212 213 213 214 215 215 215 215 215 216 216 216 217 218 218 219 220 221 221 221 221 222 222 222 222 222 222 222 222 222 222 222 223 223 222 223 223 224 225 225 220 213 213 220 222 222 224 227 224 221 222 227 230 234 237 239 240 241 242 243 243 243 243 244 245 245 243 242 241 244 247 249 251 252 251 251 249 246 244
208 210 212 212 213 214 213 213 214 214 214 216 216 215 216 216 216 217 217 218 218 219 220 221 221 222 222 222 222 223 223 222 223 223 223 223 223 222 223 223 224 224 223 223 224 225 226 224 217 213 217 221 221 222 224 224 221 221 225 229 231 232 234 236 237 239 240 242 241 241 244 246 246 244 242 241 242 245 249 250 250 249 248 247 246 245
208 210 212 212 213 215 214 213 214 214 215 216 216 216 216 217 217 218 218 218 219 220 221 221 222 222 223 223 223 223 224 223 224 224 224 224 224 224 223 224 225 226 225 224 224 225 226 226 222 217 217 221 222 223 225 227 226 225 225 228 231 232 232 232 234 236 239 240 240 240 242 245 247 246 242 240 241 244 247 248 247 247 248 247 245 244
208 210 212 212 213 215 215 215 215 215 216 217 217 216 216 217 218 218 219 219 220 220 221 222 222 223 223 224 224 224 224 224 224 225 225 225 226 225 225 225 225 226 227 226 225 225 226 226 225 221 219 221 224 225 227 229 230 230 228 226 227 231 233 234 235 236 237 239 240 242 241 241 244 246 244 241 240 240 242 245 246 247 247 245 242 240
210 210 212 213 213 214 216 216 216 216 217 217 217 217 216 217 218 219 219 220 221 221 222 223 223 224 224 224 224 225 225 225 225 225 225 226 227 227 227 227 226 226 227 227 226 226 226 226 226 225 223 223 225 227 228 228 229 231 231 227 227 229 231 233 234 234 234 235 237 240 241 241 241 244 245 244 243 241 241 244 246 246 245 243 240 237
210 211 212 213 213 214 216 217 217 217 218 218 218 217 217 218 218 219 220 220 221 222 223 223 224 224 225 225 225 226 226 226 226 227 226 226 227 228 227 228 228 227 226 227 227 227 227 226 226 226 225 225 225 226 227 227 228 230 231 230 228 229 230 231 231 231 231 232 233 237 241 243 243 242 242 244 245 245 244 243 244 245 245 244 241 237
211 211 212 213 214 214 216 217 218 218 219 220 219 219 219 219 219 220 220 221 221 221 222 223 224 224 225 226 226 227 227 227 227 228 228 227 227 227 227 228 228 228 227 227 227 227 227 227 227 227 227 226 226 225 225 226 227 229 231 231 228 227 229 231 230 230 229 229 230 233 237 242 244 243 241 242 244 246 246 245 244 244 245 245 243 239
211 212 212 214 215 215 216 217 218 219 220 220 220 220 220 221 221 221 221 222 222 222 223 224 225 225 225 226 227 228 228 229 228 228 229 229 228 228 228 228 228 228 228 228 228 228 228 228 228 227 227 227 227 226 226 225 226 227 230 231 228 225 227 230 231 231 231 229 230 232 235 239 242 243 242 242 243 244 245 244 243 242 243 244 244 241
212 212 213 214 215 216 216 217 218 220 220 220 220 221 221 222 222 222 223 223 223 223 224 225 226 226 226 226 228 229 229 230 230 230 230 230 230 230 229 229 229 230 229 229 229 229 229 229 229 229 228 227 227 227 226 226 226 225 227 228 227 224 225 228 230 231 232 232 231 232 235 239 242 243 243 243 243 243 242 242 242 242 242 243 243 242
212 213 214 215 216 217 217 218 218 220 220 220 220 221 222 223 223 224 224 225 224 224 225 225 226 226 227 227 227 228 230 230 231 232 232 232 232 232 232 231 231 231 231 231 231 231 231 231 231 231 230 229 228 227 227 227 227 226 225 226 227 225 224 226 228 229 230 231 232 233 234 237 241 243 243 243 244 244 243 242 241 242 242 243 243 242
213 214 215 216 216 217 219 219 219 220 220 220 221 221 222 223 224 224 225 226 226 226 226 226 226 226 227 227 227 228 229 230 231 232 232 232 232 233 233 232 232 231 231 232 231 231 231 231 231 232 232 231 230 229 228 227 228 228 227 226 226 227 226 225 226 227 227 229 230 232 234 235 238 240 242 242 243 244 244 243 242 242 242 243 243 242
214 215 216 217 217 218 219 220 220 221 221 220 221 222 222 223 224 225 226 226 227 227 227 227 226 226 226 227 228 229 229 230 231 232 233 233 233 233 233 233 232 232 232 232 232 232 232 231 231 231 232 232 232 231 230 229 228 229 229 227 226 227 227 226 225 226 227 228 230 231 233 235 236 238 239 241 241 242 243 244 244 243 242 243 243 243
214 215 216 218 219 219 220 222 222 222 222 221 221 222 223 224 225 226 226 227 227 228 228 227 227 226 226 226 228 230 231 232 233 233 234 235 235 235 235 235 234 233 232 232 232 232 232 232 232 232 232 232 232 232 232 231 230 229 230 229 228 227 227 227 226 226 227 229 231 232 234 235 237 238 238 240 241 242 243 244 245 244 243 243 244 245
215 216 217 219 220 221 222 223 224 224 224 223 222 222 223 224 225 226 227 227 228 228 228 228 228 227 227 226 227 230 232 233 234 234 234 235 235 235 235 236 236 235 234 234 233 233 233 232 232 233 232 232 232 233 233 233 232 231 230 230 230 229 228 228 228 227 228 229 230 232 234 236 237 238 239 240 241 242 243 244 245 246 246 245 245 246
217 218 218 219 221 222 223 224 225 226 226 226 224 224 224 224 226 227 227 228 228 228 229 229 228 227 227 226 227 229 231 233 234 234 235 236 237 237 236 237 237 236 236 236 235 235 234 234 234 234 234 234 233 233 233 233 233 233 232 231 231 231 230 230 229 230 230 230 230 231 233 234 236 238 240 240 241 242 243 243 244 245 247 247 247 246
218 219 220 221 222 223 224 225 226 227 227 227 227 226 226 226 226 228 228 229 229 229 229 230 229 228 227 226 225 227 230 233 233 234 234 236 237 237 237 237 238 237 237 237 236 236 235 235 235 235 235 235 235 235 235 235 234 235 234 233 232 232 232 232 232 232 232 232 232 233 233 234 235 236 239 241 242 242 243 243 244 244 246 247 248 248
219 221 222 223 223 224 225 226 226 227 228 228 228 228 227 227 227 229 230 230 230 231 231 231 231 230 229 227 225 226 229 231 233 233 234 235 235 236 236 237 237 237 237 237 237 237 236 236 236 236 236 236 236 236 236 236 236 235 236 235 235 234 234 233 233 233 234 234 234 235 235 235 235 236 237 239 241 242 243 244 244 244 245 246 247 248
Height
10901 10907 10913 10917 10922 10927 10933 10941 10949 10955 10960 10964 10967 10971 10976 10980 10984 10988 10993 10997 11001 11004 11008 11011 11014 11017 11018 11021 11022 11023 11025 11026 11027 11029 11029 11029 11030 11030 11031 11031 11030 11030 11031 11031 11030 11029 11029 11028 11027 11027 11026 11025 11025 11024 11022 11021 11020 11019 11018 11016 11015 11014 11013 11012 11011 11010 11008 11006 11004 11002 11000 10999 10997 10995 10993 10992 10990 10989 10988 10987 10987 10986 10985 10984 10983 10982
10895 10902 10906 10911 10917 10924 10931 10939 10945 10950 10955 10958 10962 10967 10972 10977 10981 10985 10990 10993 10997 11001 11005 11009 11012 11015 11017 11019 11021 11022 11024 11025 11026 11028 11028 11029 11030 11030 11031 11031 11031 11031 11031 11031 11031 11031 11030 11029 11029 11028 11027 11027 11026 11025 11024 11023 11022 11021 11020 11019 11018 11017 11016 11015 11014 11013 11011 11009 11007 11005 11003 11001 11000 10998 10996 10995 10994 10992 10991 10990 10989 10988 10987 10986 10986 10985
10890 10895 10899 10907 10914 10922 10928 10934 10939 10945 10949 10952 10957 10963 10969 10974 10978 10983 10988 10992 10996 11000 11004 11008 11011 11013 11014 11017 11019 11021 11023 11024 11025 11026 11027 11028 11029 11030 11030 11031 11031 11031 11031 11031 11032 11032 11031 11030 11030 11029 11029 11028 11027 11027 11026 11025 11024 11023 11022 11021 11020 11019 11018 11017 11016 11015 11014 11012 11010 11008 11006 11004 11002 11001 10999 10998 10997 10996 10994 10993 10992 10991 10990 10989 10989 10988
10881 10886 10894 10903 10910 10917 10922 10927 10933 10938 10942 10946 10952 10959 10965 10970 10975 10980 10986 10991 10995 10998 11002 11006 11009 11011 11012 11015 11017 11020 11022 11023 11023 11025 11026 11027 11028 11029 11030 11030 11031 11031 11031 11031 11032 11032 11032 11031 11031 11031 11030 11029 11029 11028 11028 11027 11026 11025 11023 11023 11022 11021 11020 11019 11018 11018 11017 11015 11013 11011 11009 11008 11006 11004 11002 11001 11000 10999 10997 10996 10995 10994 10993 10992 10991 10991
10873 10881 10890 10897 10903 10910 10916 10921 10927 10932 10937 10942 10948 10955 10961 10966 10971 10978 10983 10988 10992 10995 10999 11002 11006 11009 11011 11013 11016 11018 11019 11021 11022 11024 11025 11026 11027 11028 11029 11030 11030 11030 11031 11031 11032 11032 11032 11032 11032 11032 11031 11031 11030 11030 11030 11029 11028 11027 11026 11025 11024 11023 11023 11022 11021 11020 11019 11018 11016 11014 11012 11011 11009 11007 11006 11004 11003 11002 11000 10999 10998 10997 10996 10995 10994 10994
10870 10878 10885 10890 10896 10904 10910 10915 10921 10927 10932 10938 10943 10950 10956 10961 10968 10975 10980 10985 10989 10992 10996 10999 11002 11006 11008 11011 11014 11015 11017 11019 11021 11022 11024 11024 11026 11027 11028 11029 11030 11030 11030 11031 11032 11032 11032 11032 11032 11032 11032 11032 11031 11031 11031 11031 11030 11029 11028 11027 11026 11026 11025 11024 11023 11022 11022 11020 11019 11017 11016 11014 11012 11011 11009 11008 11006 11005 11003 11002 11001 11000 10999 10998 10997 10996
10866 10872 10879 10886 10891 10897 10903 10909 10916 10922 10928 10933 10939 10945 10951 10958 10966 10972 10977 10982 10986 10990 10992 10995 10999 11003 11005 11008 11011 11013 11015 11018 11020 11021 11022 11023 11024 11025 11026 11028 11029 11029 11030 11031 11032 11032 11033 11033 11033 11033 11033 11033 11033 11032 11032 11032 11032 11031 11030 11029 11028 11028 11027 11026 11025 11024 11024 11023 11022 11021 11019 11017 11015 11014 11013 11011 11009 11008 11006 11005 11004 11003 11002 11000 11000 10999
10859 10865 10872 10879 10885 10891 10897 10903 10909 10916 10922 10928 10934 10940 10947 10955 10962 10967 10972 10976 10981 10985 10988 10991 10996 11000 11003 11006 11008 11011 11014 11016 11018 11019 11020 11021 11023 11023 11025 11026 11027 11028 11029 11030 11031 11032 11033 11033 11033 11033 11034 11034 11033 11033 11033 11033 11033 11032 11032 11031 11030 11030 11029 11028 11028 11027 11026 11025 11024 11023 11022 11020 11018 11017 11016 11014 11013 11011 11010 11008 11007 11006 11005 11003 11002 11001
10850 10857 10865 10870 10877 10885 10890 10897 10904 10912 10919 10924 10930 10936 10943 10951 10957 10962 10967 10972 10977 10980 10983 10989 10993 10997 11001 11003 11005 11009 11012 11014 11015 11016 11018 11020 11021 11022 11023 11025 11026 11027 11028 11028 11029 11031 11032 11033 11033 11034 11034 11034 11034 11034 11034 11035 11035 11034 11033 11033 11032 11032 11031 11030 11030 11029 11028 11027 11026 11026 11025 11023 11022 11020 11019 11017 11016 11015 11013 11012 11010 11009 11008 11007 11005 11004
10845 10853 10860 10865 10872 10878 10885 10893 10900 10908 10914 10919 10925 10933 10940 10947 10953 10958 10963 10968 10972 10975 10980 10986 10990 10994 10998 11000 11003 11006 11009 11010 11011 11013 11016 11018 11019 11020 11022 11023 11024 11025 11026 11027 11028 11030 11031 11032 11033 11034 11034 11034 11034 11034 11035 11035 11036 11035 11035 11034 11034 11033 11033 11032 11032 11031 11030 11029 11028 11028 11027 11026 11025 11024 11022 11021 11019 11018 11017 11015 11014 11012 11011 11010 11009 11007
10842 10850 10855 10861 10867 10873 10882 10890 10898 10906 10911 10915 10923 10931 10936 10942 10948 10953 10959 10964 10967 10971 10976 10982 10986 10991 10995 10998 11000 11002 11004 11006 11008 11010 11014 11017 11018 11019 11019 11021 11022 11024 11025 11026 11027 11029 11030 11031 11033 11033 11034 11034 11035 11035 11035 11036 11037 11036 11036 11036 11035 11035 11034 11033 11033 11033 11032 11031 11030 11030 11029 11029 11028 11027 11025 11024 11022 11021 11020 11019 11017 11016 11014 11013 11012 11010
10837 10844 10850 10856 10861 10868 10877 10885 10893 10901 10906 10912 10920 10926 10930 10935 10941 10947 10953 10958 10962 10967 10972 10977 10982 10987 10991 10994 10996 10997 11000 11003 11006 11008 11011 11014 11015 11016 11018 11019 11021 11022 11023 11024 11026 11027 11029 11030 11032 11033 11034 11034 11035 11035 11036 11036 11037 11037 11037 11037 11037 11036 11035 11035 11034 11034 11034 11033 11032 11032 11031 11031 11030 11029 11028 11027 11025 11024 11023 11022 11020 11019 11018 11017 11015 11014
10831 10839 10845 10851 10855 10862 10871 10879 10888 10895 10901 10909 10916 10920 10925 10930 10936 10942 10947 10952 10957 10963 10967 10972 10977 10981 10985 10989 10991 10993 10997 11000 11003 11006 11008 11010 11013 11015 11016 11018 11019 11020 11022 11023 11025 11026 11028 11029 11030 11032 11033 11034 11034 11035 11036 11036 11037 11038 11038 11038 11038 11037 11036 11036 11036 11035 11035 11034 11034 11034 11033 11033 11032 11032 11031 11030 11028 11027 11026 11025 11023 11022 11021 11020 11019 11018
10826 10834 10840 10845 10850 10857 10866 10875 10883 10889 10897 10905 10909 10914 10921 10926 10932 10937 10941 10946 10952 10957 10961 10966 10971 10976 10979 10983 10986 10989 10993 10997 11000 11003 11005 11007 11010 11012 11014 11016 11017 11018 11020 11021 11023 11025 11026 11027 11029 11031 11032 11033 11034 11035 11035 11036 11037 11038 11038 11038 11038 11038 11037 11037 11036 11036 11036 11035 11035 11035 11035 11035 11034 11034 11033 11032 11031 11030 11029 11028 11027 11025 11024 11023 11022 11021
10819 10826 10832 10838 10845 10851 10860 10869 10876 10883 10892 10898 10902 10908 10914 10918 10924 10929 10932 10938 10946 10951 10954 10960 10966 10971 10974 10976 10980 10985 10989 10993 10996 10999 11002 11004 11007 11010 11012 11014 11015 11017 11018 11020 11021 11023 11024 11026 11027 11029 11031 11032 11033 11034 11035 11036 11036 11037 11038 11038 11039 11039 11038 11037 11037 11037 11037 11036 11036 11036 11036 11036 11036 11035 11035 11035 11034 11033 11032 11031 11030 11029 11028 11026 11025 11024
10813 10821 10827 10832 10838 10844 10852 10861 10869 10876 10883 10888 10893 10900 10905 10910 10916 10920 10924 10932 10941 10945 10949 10955 10960 10964 10968 10972 10976 10980 10984 10989 10993 10996 10999 11001 11004 11007 11010 11012 11013 11014 11016 11018 11020 11021 11022 11023 11026 11027 11029 11031 11032 11033 11034 11035 11036 11037 11037 11038 11038 11039 11039 11038 11038 11038 11038 11038 11037 11037 11037 11037 11037 11037 11037 11037 11036 11036 11035 11034 11033 11032 11031 11030 11028 11027
10806 10813 10820 10825 10830 10836 10844 10852 10860 10866 10873 10880 10887 10895 10901 10905 10910 10915 10920 10929 10936 10940 10944 10950 10955 10959 10965 10970 10973 10976 10980 10985 10989 10992 10995 10998 11001 11003 11006 11009 11011 11012 11014 11016 11018 11019 11020 11021 11024 11026 11027 11029 11031 11032 11033 11034 11035 11036 11036 11037 11038 11038 11039 11039 11038 11038 11039 11039 11039 11038 11038 11038 11038 11038 11038 11038 11038 11037 11037 11037 11036 11035 11034 11033 11032 11030
10800 10808 10814 10818 10822 10827 10836 10845 10852 10859 10868 10877 10884 10890 10896 10899 10904 10910 10916 10925 10931 10934 10939 10944 10949 10955 10961 10965 10968 10972 10977 10981 10985 10988 10992 10995 10997 11000 11003 11006 11008 11010 11012 11014 11016 11018 11019 11020 11021 11023 11025 11027 11029 11030 11031 11032 11033 11034 11035 11036 11037 11038 11038 11039 11039 11038 11039 11039 11039 11039 11040 11039 11039 11039 11039 11039 11039 11039 11038 11038 11038 11037 11036 11035 11034 11033
10796 10804 10807 10811 10815 10821 10829 10838 10847 10856 10866 10872 10878 10884 10890 10894 10900 10906 10913 10919 10924 10928 10933 10937 10942 10949 10955 10959 10961 10966 10972 10976 10980 10984 10988 10991 10994 10996 10999 11002 11004 11007 11010 11012 11014 11015 11017 11018 11019 11021 11023 11025 11027 11028 11030 11031 11032 11033 11034 11035 11036 11037 11038 11038 11038 11039 11039 11039 11040 11040 11040 11041 11040 11040 11040 11040 11040 11040 11039 11039 11039 11038 11038 11037 11036 11035
10788 10794 10798 10802 10808 10814 10823 10833 10844 10854 10860 10866 10873 10880 10884 10888 10895 10901 10907 10913 10916 10921 10925 10929 10935 10942 10948 10953 10956 10960 10965 10970 10973 10978 10982 10986 10989 10992 10995 10998 11001 11004 11007 11009 11010 11012 11014 11016 11018 11019 11021 11023 11025 11026 11028 11029 11031 11032 11033 11034 11035 11036 11037 11037 11038 11038 11039 11039 11040 11040 11041 11041 11041 11041 11041 11041 11041 11041 11041 11040 11040 11039 11039 11038 11037 11037
10780 10787 10792 10797 10804 10811 10821 10831 10840 10846 10852 10859 10867 10873 10878 10885 10892 10897 10902 10907 10910 10914 10919 10924 10929 10934 10940 10946 10950 10954 10959 10963 10967 10971 10976 10980 10984 10988 10992 10994 10997 11000 11004 11006 11007 11009 11011 11013 11015 11017 11019 11021 11022 11024 11026 11028 11029 11030 11031 11032 11033 11034 11035 11036 11037 11038 11038 11039 11040 11041 11041 11042 11042 11042 11042 11041 11042 11042 11042 11042 11041 11041 11040 11039 11039 11038
10773 10781 10787 10793 10800 10807 10815 10822 10829 10837 10845 10851 10857 10863 10871 10880 10886 10892 10897 10901 10906 10910 10914 10919 10924 10928 10932 10938 10943 10948 10952 10956 10961 10965 10970 10974 10979 10984 10989 10992 10994 10997 11000 11002 11004 11007 11009 11010 11013 11015 11017 11018 11020 11022 11024 11026 11027 11028 11029 11030 11031 11032 11034 11035 11036 11037 11038 11038 11039 11040 11041 11042 11042 11042 11042 11042 11042 11042 11042 11042 11042 11042 11041 11040 11040 11039
10767 10776 10783 10787 10792 10799 10808 10816 10824 10833 10838 10842 10848 10855 10864 10872 10878 10884 10890 10895 10900 10905 10909 10914 10919 10922 10925 10930 10936 10940 10944 10949 10954 10959 10964 10970 10975 10980 10986 10990 10991 10994 10996 10999 11001 11004 11006 11007 11010 11012 11014 11016 11017 11020 11021 11023 11025 11026 11027 11028 11029 11030 11032 11033 11034 11035 11036 11037 11038 11039 11041 11042 11042 11042 11042 11042 11042 11042 11042 11042 11042 11042 11041 11041 11040 11040
10762 10770 10777 10780 10786 10797 10807 10812 10818 10824 10830 10836 10843 10852 10860 10866 10871 10876 10882 10887 10892 10897 10902 10908 10912 10915 10919 10924 10929 10933 10937 10942 10948 10953 10959 10964 10970 10977 10982 10986 10987 10989 10992 10994 10997 11000 11002 11004 11006 11008 11010 11012 11014 11016 11018 11020 11022 11023 11024 11026 11027 11028 11029 11031 11032 11033 11034 11035 11037 11038 11039 11040 11041 11041 11042 11042 11042 11042 11042 11042 11042 11041 11041 11041 11041 11040
10757 10764 10770 10774 10782 10792 10798 10801 10809 10819 10826 10833 10840 10847 10854 10861 10866 10872 10876 10879 10884 10890 10896 10901 10905 10909 10912 10917 10922 10926 10931 10936 10942 10948 10954 10959 10965 10971 10976 10979 10981 10984 10987 10989 10992 10995 10997 10999 11001 11003 11006 11009 11011 11013 11015 11017 11019 11020 11022 11023 11025 11026 11027 11028 11030 11031 11032 11033 11034 11036 11037 11038 11039 11040 11040 11041 11041 11042 11042 11042 11042 11042 11042 11041 11041 11041
10750 10755 10761 10768 10777 10784 10788 10795 10806 10816 10822 10828 10836 10843 10849 10855 10861 10865 10868 10872 10879 10885 10890 10893 10897 10901 10905 10910 10915 10919 10924 10930 10936 10942 10948 10953 10959 10964 10968 10972 10976 10980 10983 10985 10988 10991 10992 10994 10996 10999 11002 11005 11008 11010 11012 11014 11016 11018 11019 11021 11022 11023 11024 11026 11027 11028 11030 11031 11032 11033 11034 11036 11037 11038 11039 11039 11040 11040 11041 11042 11042 11042 11042 11042 11042 11042
10743 10750 10758 10764 10770 10775 10781 10790 10800 10808 10815 10822 10829 10835 10840 10847 10852 10856 10861 10869 10875 10879 10882 10884 10887 10892 10897 10903 10908 10912 10918 10924 10930 10936 10942 10947 10953 10957 10962 10967 10972 10975 10977 10980 10984 10986 10988 10990 10992 10995 10998 11001 11003 11006 11008 11011 11012 11014 11016 11017 11019 11020 11022 11023 11025 11026 11027 11028 11029 11030 11031 11033 11034 11035 11037 11037 11038 11039 11039 11040 11041 11042 11042 11042 11042 11042
10739 10747 10755 10760 10765 10770 10777 10787 10795 10800 10806 10813 10818 10823 10830 10839 10845 10849 10855 10860 10865 10869 10874 10875 10877 10882 10889 10895 10901 10906 10911 10917 10924 10929 10935 10941 10946 10951 10956 10961 10965 10969 10971 10975 10978 10980 10983 10985 10988 10991 10994 10997 11000 11002 11004 11007 11008 11010 11012 11013 11015 11017 11019 11020 11021 11023 11024 11025 11026 11027 11028 11030 11031 11032 11034 11035 11036 11037 11037 11038 11039 11040 11041 11041 11041 11042
10734 10741 10747 10754 10760 10767 10775 10784 10789 10793 10799 10806 10811 10817 10824 10831 10836 10841 10845 10850 10855 10860 10864 10865 10868 10874 10882 10889 10894 10900 10905 10911 10917 10922 10928 10935 10940 10945 10950 10954 10958 10961 10964 10968 10973 10976 10979 10981 10984 10988 10990 10993 10996 10998 11000 11002 11004 11006 11008 11009 11011 11013 11015 11016 11018 11019 11021 11022 11023 11024 11025 11027 11028 11029 11031 11032 11033 11034 11035 11036 11036 11037 11038 11040 11040 11040
10728 10734 10741 10750 10757 10764 10771 10778 10782 10788 10795 10801 10804 10810 10817 10822 10828 10833 10837 10842 10848 10853 10857 10860 10863 10869 10877 10883 10888 10893 10899 10905 10910 10915 10922 10928 10933 10938 10943 10948 10951 10954 10957 10963 10968 10972 10975 10978 10982 10985 10987 10989 10992 10994 10996 10998 11000 11002 11004 11005 11007 11009 11010 11012 11014 11015 11017 11019 11020 11021 11023 11024 11025 11026 11028 11029 11030 11031 11032 11033 11033 11034 11035 11037 11038 11039
10721 10727 10737 10747 10753 10759 10766 10773 10778 10784 10788 10792 10797 10804 10810 10816 10822 10826 10829 10835 10841 10847 10852 10855 10858 10864 10871 10877 10882 10886 10892 10898 10903 10909 10915 10921 10926 10931 10935 10940 10944 10947 10951 10956 10962 10967 10971 10975 10979 10982 10983 10984 10987 10989 10991 10994 10996 10997 10999 11002 11003 11004 11005 11007 11009 11011 11013 11015 11016 11018 11019 11020 11022 11023 11024 11026 11027 11028 11029 11030 11031 11031 11031 11033 11035 11037
10715 10723 10734 10743 10747 10752 10759 10766 10771 10776 10780 10785 10791 10798 10804 10809 10815 10819 10823 10829 10834 10839 10842 10845 10850 10857 10864 10870 10875 10879 10884 10890 10896 10902 10908 10913 10918 10923 10928 10932 10937 10941 10945 10949 10954 10960 10965 10969 10973 10976 10978 10980 10983 10985 10986 10989 10991 10992 10995 10997 10997 10998 11000 11002 11005 11007 11009 11011 11013 11014 11015 11017 11018 11019 11020 11022 11023 11024 11025 11026 11027 11028 11029 11029 11030 11033
10710 10718 10728 10733 10736 10741 10749 10756 10762 10768 10773 10778 10784 10790 10796 10802 10807 10811 10816 10821 10826 10831 10834 10838 10844 10851 10856 10862 10867 10871 10876 10882 10888 10895 10901 10906 10910 10915 10920 10925 10929 10934 10938 10942 10947 10953 10958 10963 10968 10972 10975 10977 10979 10980 10981 10982 10985 10987 10989 10990 10990 10992 10995 10999 11001 11002 11004 11006 11008 11010 11011 11013 11014 11015 11016 11018 11019 11020 11021 11022 11023 11024 11025 11026 11027 11028
10704 10711 10717 10721 10724 10729 10739 10747 10753 10758 10763 10768 10775 10782 10789 10795 10800 10805 10811 10815 10819 10823 10827 10831 10836 10842 10847 10853 10857 10862 10868 10874 10881 10888 10893 10897 10902 10907 10912 10917 10921 10926 10930 10935 10940 10945 10951 10957 10962 10966 10968 10970 10972 10974 10974 10975 10978 10981 10983 10983 10985 10987 10991 10995 10996 10996 10999 11001 11003 11005 11007 11008 11010 11011 11012 11013 11014 11015 11016 11017 11019 11020 11021 11023 11024 11025
10698 10702 10707 10713 10717 10721 10731 10739 10743 10749 10755 10760 10767 10774 10780 10786 10791 10797 10802 10807 10811 10816 10819 10823 10829 10833 10839 10844 10849 10854 10861 10869 10875 10879 10883 10887 10893 10899 10904 10908 10913 10918 10922 10928 10933 10938 10943 10948 10953 10957 10958 10961 10964 10966 10968 10969 10972 10975 10977 10978 10980 10982 10985 10988 10990 10991 10993 10995 10998 11000 11001 11003 11004 11005 11006 11008 11008 11009 11011 11013 11014 11015 11017 11018 11020 11022
10690 10694 10699 10706 10710 10716 10726 10732 10737 10744 10749 10752 10759 10766 10771 10777 10783 10788 10793 10798 10803 10808 10812 10816 10821 10826 10831 10836 10841 10847 10855 10862 10866 10870 10874 10879 10885 10891 10896 10900 10904 10910 10915 10920 10925 10931 10935 10940 10945 10948 10950 10952 10956 10959 10961 10963 10966 10968 10970 10972 10974 10976 10978 10981 10984 10985 10986 10989 10993 10994 10996 10998 10999 10998 11000 11002 11003 11004 11006 11007 11008 11010 11013 11015 11018 11019
10682 10687 10692 10698 10705 10710 10718 10725 10730 10736 10739 10742 10749 10758 10764 10769 10775 10781 10785 10790 10794 10799 10803 10808 10813 10818 10823 10828 10834 10841 10847 10852 10857 10861 10865 10871 10877 10883 10889 10893 10897 10902 10907 10913 10918 10923 10927 10931 10936 10939 10941 10944 10948 10952 10954 10957 10960 10962 10964 10966 10967 10969 10971 10974 10976 10978 10981 10984 10987 10989 10991 10993 10992 10991 10993 10996 10997 10999 11000 11000 11002 11006 11009 11011 11013 11014
10676 10681 10685 10691 10698 10703 10709 10716 10722 10726 10730 10734 10741 10749 10756 10762 10767 10772 10777 10781 10786 10791 10796 10800 10804 10809 10814 10819 10826 10832 10836 10842 10848 10853 10858 10865 10870 10876 10881 10885 10889 10893 10898 10904 10909 10914 10918 10922 10926 10930 10934 10937 10941 10944 10947 10950 10954 10957 10959 10959 10960 10962 10964 10966 10969 10972 10975 10978 10980 10983 10985 10986 10985 10985 10987 10989 10991 10993 10994 10994 10997 11001 11003 11005 11006 11007
10669 10674 10679 10685 10691 10696 10701 10707 10713 10718 10721 10726 10732 10740 10747 10753 10758 10764 10769 10774 10780 10786 10789 10792 10796 10800 10806 10812 10817 10822 10827 10833 10839 10845 10852 10859 10864 10869 10873 10876 10879 10884 10888 10893 10899 10904 10908 10912 10917 10921 10926 10930 10934 10937 10940 10943 10947 10950 10951 10952 10954 10955 10957 10960 10963 10966 10969 10971 10974 10976 10977 10977 10978 10979 10981 10982 10984 10986 10988 10989 10992 10995 10997 10998 11000 11002
10663 10669 10675 10680 10685 10690 10694 10698 10705 10710 10713 10718 10725 10732 10739 10745 10750 10756 10762 10766 10771 10775 10779 10783 10787 10792 10798 10803 10808 10813 10820 10827 10834 10840 10846 10851 10855 10859 10863 10865 10869 10873 10878 10882 10888 10894 10899 10904 10908 10913 10917 10922 10926 10929 10932 10936 10939 10942 10943 10945 10947 10949 10951 10953 10956 10959 10962 10964 10966 10968 10969 10969 10970 10973 10975 10976 10978 10980 10981 10983 10986 10988 10990 10992 10994 10996
10657 10663 10669 10673 10677 10682 10687 10692 10699 10703 10706 10712 10719 10727 10733 10738 10743 10748 10752 10754 10758 10763 10768 10773 10778 10784 10790 10796 10802 10809 10816 10822 10827 10831 10834 10838 10842 10846 10849 10852 10856 10862 10867 10872 10877 10883 10888 10893 10899 10903 10908 10913 10917 10920 10924 10928 10930 10933 10936 10939 10941 10943 10944 10946 10949 10951 10954 10956 10957 10959 10961 10961 10962 10965 10969 10971 10972 10973 10975 10977 10978 10980 10983 10985 10987 10989
10652 10658 10663 10666 10670 10676 10681 10686 10691 10694 10698 10705 10713 10721 10726 10730 10734 10740 10741 10743 10748 10754 10760 10765 10771 10777 10783 10789 10796 10803 10808 10812 10816 10819 10821 10825 10830 10833 10837 10841 10845 10851 10857 10862 10868 10874 10879 10884 10889 10894 10898 10903 10907 10911 10915 10918 10921 10924 10928 10931 10933 10935 10937 10939 10941 10944 10946 10947 10949 10951 10952 10953 10954 10957 10960 10963 10965 10965 10966 10968 10970 10973 10976 10978 10978 10980
10646 10652 10656 10659 10665 10670 10674 10679 10683 10686 10691 10699 10706 10712 10717 10720 10726 10729 10730 10734 10741 10748 10754 10760 10765 10770 10777 10785 10791 10797 10800 10804 10807 10809 10812 10816 10819 10823 10827 10833 10838 10843 10849 10854 10860 10865 10871 10875 10880 10884 10888 10893 10897 10901 10905 10908 10912 10915 10919 10922 10924 10926 10929 10931 10933 10935 10938 10939 10941 10943 10944 10945 10946 10949 10952 10954 10955 10955 10957 10960 10963 10966 10969 10970 10971 10973
10640 10645 10649 10653 10659 10663 10667 10671 10676 10678 10683 10690 10697 10702 10707 10711 10715 10718 10721 10727 10734 10740 10746 10752 10757 10763 10771 10778 10783 10787 10790 10792 10795 10797 10800 10804 10808 10812 10817 10824 10830 10835 10840 10846 10851 10856 10862 10866 10870 10874 10878 10883 10887 10891 10895 10898 10901 10905 10910 10913 10916 10917 10919 10922 10924 10926 10929 10931 10932 10934 10936 10938 10939 10941 10943 10945 10946 10946 10949 10952 10955 10957 10960 10962 10963 10965
10635 10639 10643 10647 10652 10656 10659 10663 10666 10669 10674 10682 10688 10693 10698 10702 10706 10710 10714 10719 10724 10731 10737 10743 10750 10757 10764 10771 10776 10777 10778 10779 10781 10784 10787 10791 10795 10799 10804 10811 10818 10824 10829 10835 10840 10846 10851 10855 10860 10864 10868 10872 10875 10879 10883 10887 10890 10894 10898 10903 10906 10908 10910 10912 10914 10916 10918 10921 10923 10925 10927 10929 10931 10933 10935 10936 10937 10938 10940 10943 10946 10949 10951 10953 10955 10956
10629 10633 10637 10641 10645 10649 10651 10655 10658 10662 10668 10675 10681 10685 10690 10693 10697 10701 10706 10710 10715 10721 10727 10733 10741 10749 10757 10765 10768 10766 10768 10771 10773 10774 10777 10780 10784 10788 10792 10797 10804 10810 10817 10823 10827 10833 10838 10842 10847 10851 10855 10858 10862 10866 10870 10874 10878 10882 10886 10890 10895 10898 10900 10902 10904 10906 10908 10911 10913 10915 10918 10920 10922 10924 10926 10927 10928 10930 10932 10934 10936 10939 10941 10944 10946 10948
10623 10627 10631 10635 10639 10643 10646 10648 10652 10656 10661 10667 10672 10677 10681 10685 10688 10692 10696 10700 10705 10711 10716 10722 10729 10737 10747 10755 10758 10759 10764 10767 10766 10765 10767 10769 10774 10779 10782 10786 10791 10797 10803 10808 10813 10819 10824 10829 10833 10837 10841 10844 10848 10852 10857 10861 10865 10869 10873 10877 10882 10886 10889 10891 10893 10895 10898 10900 10903 10905 10907 10910 10912 10914 10917 10918 10919 10920 10923 10925 10926 10929 10932 10934 10936 10938
10618 10621 10625 10629 10633 10637 10640 10643 10646 10650 10654 10659 10664 10668 10672 10676 10679 10682 10686 10690 10695 10700 10705 10711 10718 10726 10735 10745 10753 10756 10755 10753 10751 10752 10755 10757 10762 10766 10769 10773 10780 10786 10791 10796 10802 10807 10812 10816 10820 10824 10827 10831 10835 10839 10843 10847 10851 10856 10860 10864 10868 10872 10876 10879 10882 10884 10887 10889 10892 10895 10897 10899 10902 10904 10906 10909 10910 10911 10913 10915 10917 10918 10920 10923 10926 10928
10612 10616 10619 10623 10627 10631 10634 10637 10641 10645 10648 10652 10657 10661 10665 10668 10670 10673 10676 10680 10684 10689 10693 10698 10705 10714 10723 10734 10744 10745 10738 10735 10737 10742 10745 10748 10751 10754 10757 10761 10766 10772 10778 10785 10791 10796 10801 10805 10809 10812 10815 10819 10823 10827 10831 10834 10838 10842 10846 10850 10854 10858 10863 10866 10870 10873 10876 10879 10881 10884 10887 10889 10892 10894 10896 10898 10900 10902 10903 10905 10907 10908 10909 10911 10914 10918
10608 10611 10614 10618 10622 10626 10629 10631 10635 10639 10642 10645 10649 10653 10657 10660 10663 10665 10667 10671 10675 10679 10683 10687 10693 10701 10710 10721 10729 10729 10723 10721 10724 10728 10731 10733 10735 10739 10744 10749 10753 10759 10765 10771 10777 10783 10788 10793 10796 10799 10803 10807 10811 10815 10819 10822 10826 10830 10833 10837 10841 10845 10849 10853 10857 10860 10864 10867 10870 10873 10876 10878 10881 10883 10885 10887 10889 10891 10893 10895 10897 10898 10899 10900 10902 10905
10605 10607 10610 10614 10617 10620 10621 10624 10628 10631 10634 10637 10640 10644 10648 10651 10655 10657 10659 10663 10666 10670 10674 10678 10683 10690 10698 10706 10713 10714 10709 10706 10708 10712 10715 10717 10718 10722 10728 10733 10738 10744 10750 10756 10762 10768 10773 10778 10782 10785 10789 10794 10798 10802 10806 10810 10814 10817 10821 10824 10828 10832 10835 10839 10843 10847 10851 10854 10857 10860 10863 10866 10869 10871 10874 10876 10877 10879 10881 10884 10886 10888 10890 10891 10892 10893